Location: Unspecified
(49.9820°N, 20.4363°E)
Time: 22:55:21
(UTC+02:00)

Transit 2A Rocket - All Passes

Search period start: 15 May 2026 00:00
Search period end: 25 May 2026 00:00
Orbit: 587 x 895 km, 66.7° (Epoch: 15 May)

Date Brightness Start Highest point End Pass type
(mag) Time Alt. Az. Time Alt. Az. Time Alt. Az.
15 May - 01:32:08 10° NNW 01:34:47 14° NNE 01:37:18 10° NE visible
15 May - 03:13:59 10° NNW 03:18:27 41° NE 03:22:37 10° ESE visible
15 May - 04:56:36 10° NW 05:00:39 32° WSW 05:04:30 10° S daylight
15 May - 17:54:13 10° ESE 17:55:47 11° ESE 17:57:20 10° E daylight
15 May - 19:31:44 10° SSW 19:37:17 62° ESE 19:42:26 10° NE daylight
15 May - 21:15:05 10° WSW 21:19:58 32° NW 21:24:32 10° NNE visible
15 May - 23:01:23 10° NW 23:03:51 13° NNW 23:06:16 10° NNE visible
16 May - 00:46:29 10° NNW 00:48:25 12° N 00:50:17 10° NE visible
16 May - 02:28:23 10° NNW 02:32:26 27° NE 02:36:15 10° E visible
16 May - 04:10:35 10° NW 04:15:08 58° WSW 04:19:23 10° SSE visible
16 May - 18:46:32 10° S 18:51:41 38° ESE 18:56:29 10° NE daylight
16 May - 20:28:40 10° WSW 20:34:01 47° NW 20:38:56 10° NNE daylight
16 May - 22:14:15 10° WNW 22:17:32 16° NNW 22:20:40 10° NNE visible
17 May - 00:00:33 10° NNW 00:02:00 11° N 00:03:25 10° NNE visible
17 May - 01:42:49 10° NNW 01:46:18 20° NNE 01:49:36 10° ENE visible
17 May - 03:24:46 10° NW 03:29:27 79° NE 03:33:47 10° SE visible
17 May - 05:08:32 10° WNW 05:11:02 15° WSW 05:13:29 10° SW daylight
17 May - 18:01:53 10° SSE 18:06:10 23° ESE 18:10:14 10° ENE daylight
17 May - 19:42:34 10° SW 19:48:09 73° NW 19:53:17 10° NE daylight
17 May - 21:27:16 10° W 21:31:19 21° NNW 21:35:07 10° NNE visible
17 May - 23:14:00 10° NNW 23:15:34 11° N 23:17:05 10° NNE visible
18 May - 00:57:15 10° NNW 01:00:03 15° NNE 01:02:43 10° ENE visible
18 May - 02:39:05 10° NNW 02:43:37 47° NE 02:47:50 10° ESE visible
18 May - 04:21:52 10° NW 04:25:41 27° WSW 04:29:19 10° S daylight
18 May - 17:18:17 10° SE 17:20:47 13° ESE 17:23:14 10° ENE daylight
18 May - 18:56:49 10° SSW 19:02:25 71° ESE 19:07:33 10° NE daylight
18 May - 20:40:30 10° W 20:45:11 29° NW 20:49:34 10° NNE daylight
18 May - 22:26:58 10° NW 22:29:09 13° NNW 22:31:17 10° NNE visible
19 May - 00:11:39 10° NNW 00:13:42 12° NNE 00:15:41 10° NE visible
19 May - 01:53:28 10° NNW 01:57:38 30° NE 02:01:32 10° E visible
19 May - 03:35:46 10° NW 03:40:11 49° WSW 03:44:20 10° SSE visible
19 May - 18:11:29 10° S 18:16:46 43° ESE 18:21:39 10° NE daylight
19 May - 19:53:59 10° WSW 19:59:12 42° NW 20:04:00 10° NNE daylight
19 May - 21:39:49 10° WNW 21:42:48 15° NNW 21:45:41 10° NNE visible
19 May - 23:25:51 10° NNW 23:27:18 11° N 23:28:43 10° NNE visible
20 May - 01:07:55 10° NNW 01:11:32 21° NNE 01:14:58 10° E visible
20 May - 02:49:54 10° NW 02:54:33 88° SW 02:58:52 10° SE visible
20 May - 04:34:13 10° W 04:36:01 12° WSW 04:37:47 10° SW daylight
20 May - 17:26:40 10° SSE 17:31:13 26° ESE 17:35:31 10° ENE daylight
20 May - 19:07:47 10° SW 19:13:18 64° NW 19:18:22 10° NNE daylight
20 May - 20:52:46 10° WNW 20:56:33 19° NNW 21:00:08 10° NNE daylight
20 May - 22:39:31 10° NNW 22:40:52 11° N 22:42:12 10° NNE visible
21 May - 00:22:22 10° NNW 00:25:18 16° NNE 00:28:08 10° ENE visible
21 May - 02:04:11 10° NNW 02:08:45 54° NE 02:13:01 10° SE visible
21 May - 03:47:10 10° WNW 03:50:41 23° WSW 03:54:04 10° SSW visible
21 May - 16:42:41 10° SE 16:45:48 15° ESE 16:48:49 10° ENE daylight
21 May - 18:21:56 10° SSW 18:27:31 81° SE 18:32:39 10° NE daylight
21 May - 20:05:55 10° W 20:10:24 26° NW 20:14:36 10° NNE daylight
21 May - 21:52:33 10° NW 21:54:27 12° NNW 21:56:19 10° NNE visible
21 May - 23:36:48 10° NNW 23:38:59 13° NNE 23:41:07 10° NE visible
22 May - 01:18:34 10° NNW 01:22:49 33° NE 01:26:48 10° ESE visible
22 May - 03:00:57 10° NW 03:05:13 41° WSW 03:09:16 10° S visible
22 May - 17:36:29 10° SSW 17:41:51 49° ESE 17:46:48 10° NE daylight
22 May - 19:19:19 10° WSW 19:24:22 37° NW 19:29:02 10° NNE daylight
22 May - 21:05:23 10° NW 21:08:05 14° NNW 21:10:41 10° NNE visible
22 May - 22:51:06 10° N 22:52:36 11° N 22:54:04 10° NNE visible
23 May - 00:32:59 10° NNW 00:36:45 23° NNE 00:40:18 10° E visible
23 May - 02:15:03 10° NW 02:19:37 76° SW 02:23:55 10° SSE visible
23 May - 04:00:57 10° WSW 04:00:58 10° WSW 04:00:59 10° WSW visible
23 May - 16:51:31 10° S 16:56:17 30° ESE 17:00:45 10° NE daylight
23 May - 18:33:02 10° SW 18:38:27 56° NW 18:43:25 10° NNE daylight
23 May - 20:18:16 10° WNW 20:21:48 18° NNW 20:25:08 10° NNE daylight
23 May - 22:04:58 10° NNW 22:06:10 11° N 22:07:21 10° NNE visible
23 May - 23:47:27 10° NNW 23:50:33 17° NNE 23:53:31 10° ENE visible
24 May - 01:29:18 10° NNW 01:33:52 62° NE 01:38:09 10° SE visible
24 May - 03:12:31 10° WNW 03:15:41 19° WSW 03:18:44 10° SSW visible
24 May - 16:07:14 10° SSE 16:10:50 18° ESE 16:14:16 10° ENE daylight
24 May - 17:47:06 10° SW 17:52:39 89° NW 17:57:44 10° NE daylight
24 May - 19:31:22 10° W 19:35:37 24° NW 19:39:37 10° NNE daylight
24 May - 21:18:07 10° NNW 21:19:44 11° N 21:21:20 10° N visible
24 May - 23:01:54 10° NNW 23:04:15 13° NNE 23:06:32 10° NE visible
